THORAD AGENA D DEB, 4636

Orbit data source: Space-Track

THORAD AGENA D DEB, 4636 is space debris in SSO originally from a launch on Wed, 08 Apr 1970 UTC launched from the Air Force Western Test Range (AFWTR). Debris objects in space refer to the collection of defunct objects orbiting the Earth. Examples of debris include non-operational satellites, rocket bodies, and fragments generated from explosions, collisions, or faulty payload assembly.

Loading next visibility...
Identifier
4636, 1970-025U
Orbit
SSO
Country
Flag of USUS
Related business
Manufacturer
Unknown
Mission
Spacecraft
Bus & Motor
Unknown
Mass
Unknown
Launch date (UTC)
1970-04-08 (56 years ago)
Launch vehicle
Unknown
Launch site
Air Force Western Test Range (AFWTR)
Object type
Payload
Rocket body
Debris
Shape & HBR
Unknown shape, 0.2 m
Radar Cross Section
Medium (>0.1 m² and <1 m²)

Expand to show TLE details & history
Last TLE update: 15 hours ago

TLE from 15 hours ago
0 THORAD AGENA D DEB
1  4636U 70025U   26036.54247764  .00000522  00000-0  64270-3 0  9990
2  4636 100.0615  28.7230 0033406  99.1637  17.4974 13.70359823777113
Epoch: 2026-02-05T13:01Z
TLE epoch observation values (Epoch: 2026-02-05T13:01:10.068Z)
Latitude
61.62047°
Longitude
-103.19169°
Altitude
985.233 km
Speed
7.377 km/s
True Right ascension
15h 11m 10s
True Declination
61° 28' 51"
Sunlit
Object was in daylight at epoch
Visualization orbit readout
Latitude
Unknown
Longitude
Unknown
Altitude
Unknown
Speed
Unknown
Apparent Right ascension
Unknown
Apparent Declination
Unknown
Sunlit
N/A
Visualization observer readout
Local Sidereal Time
05:49:50
Azimuth
Unknown
Elevation
Unknown
Doppler factor
Unknown
Orbital elements
Apogee altitude
1,020.205 km
Perigee altitude
970.94 km
Semi-major axis
7,373.71 km
Eccentricity
0.00334
Inclination
100.0615°
RAAN
28.723°
Arg. of periapsis
99.1637°
True anomaly
17.61296°
Mean anomaly
17.4974°
Eccentric anomaly
17.55513°
Mean motion
3.42779 °/min
Orbital period
105.02 mins
BSTAR
0.0006427

Documentation

Showing up to 5 results
|